Location: Colebrook
(42.0017°N, 73.0973°W)
Time: 07:45:02
(UTC-04:00)

ISS - Pass Details

Date: 03 October 2021
Orbit: 417 x 423 km, 51.6° (Epoch: 16 October)

Event Time Altitude Azimuth Distance (km) Brightness Sun altitude
Rises 18:54:36 0° 308° (NW) 2,364 1.0 -5.4°
Reaches altitude 10° 18:56:51 10° 318° (NW) 1,499 -0.3 -5.8°
Maximum altitude 18:59:55 32° 24° (NNE) 743 -2.7 -6.4°
Drops below altitude 10° 19:02:59 10° 90° (E) 1,497 -1.7 -6.9°
Enters shadow 19:03:09 - 91° (E) 1,562 -1.6 -7.0°
